FLOCK 4V-8 (46288 NORAD) Tracking and Keplerian Element Data

This shows tracking and keplerian element data for the satellite.

Feedback or suggestion? Click here.




ElementValue
Catalog46288
NameFLOCK 4V-8
Epoch Orbit1332
Epoch Day336.1418842
Epoch Year2020
RAAN47.5651
Inclination97.5108
Eccentricity0.0003997
Argument of Perigee68.4805
Mean Anonmoly291.685
Mean Motion15.10054774
Decay Rate1.428E-05
L11 46288U 20061S 20336.14188420 .00001428 00000-0 91640-4 0 9998
L22 46288 97.5108 47.5651 0003997 68.4805 291.6850 15.10054774 13321

Live tracking and technical data element details for FLOCK 4V-8 (NORAD 46288). FLOCK 4V-8 can be tracked NOW for your location showing map with azimuth and elevation plus other details from your city location.

Track the satellite on the map from your city or location and see movement details for azimuth, elevation, latitude, longitude, range, height, and movement on the map or in text.







IsCatalogInMostPopularTable: catalog: 46288, numindb: 14
Update: records affected: 1



GetName: 46288 FLOCK 4V-8

Hit Count: updated at: Tue, 01 Dec 2020 20:46:43 GMT